RYR230B EDDK-EDDF

Flight info

Callsign RYR230B
Flight time N/A
Altitude 15000
Route COL1R COL T911 ROLIS ROLIS5D
Aircraft B738/M-SDE2E3FGHIRWXY/LB1

Departure

Time 2026-04-20 19:40
Airport Cologne Bonn Airport (EDDK)

Arrival

Time N/A
Airport Frankfurt Main Airport (EDDF)
Time Latitude Longitude Altitude Speed Heading
2026-04-20 19:20 50.87177 7.13414 248 ft 0 kts 177°
2026-04-20 19:31 50.87190 7.13413 248 ft 2 kts 176°
2026-04-20 19:32 50.87201 7.13412 248 ft 2 kts 176°
2026-04-20 19:32 50.87217 7.13410 248 ft 2 kts 175°
2026-04-20 19:32 50.87234 7.13409 248 ft 2 kts 191°
2026-04-20 19:32 50.87248 7.13419 248 ft 2 kts 248°
2026-04-20 19:33 50.87251 7.13432 249 ft 1 kts 270°
2026-04-20 19:33 50.87251 7.13436 249 ft 0 kts 271°
2026-04-20 19:33 50.87252 7.13438 249 ft 0 kts 323°
2026-04-20 19:34 50.87249 7.13442 249 ft 0 kts 134°
2026-04-20 19:35 50.87227 7.13477 250 ft 12 kts 136°
2026-04-20 19:35 50.87131 7.13618 254 ft 25 kts 138°
2026-04-20 19:36 50.87010 7.13797 260 ft 23 kts 137°
2026-04-20 19:36 50.86915 7.13938 264 ft 0 kts 138°
2026-04-20 19:36 50.86902 7.13955 264 ft 10 kts 140°
2026-04-20 19:36 50.86798 7.14102 264 ft 26 kts 142°
2026-04-20 19:37 50.86646 7.14266 263 ft 26 kts 137°
2026-04-20 19:37 50.86516 7.14452 266 ft 24 kts 139°
2026-04-20 19:37 50.86412 7.14602 271 ft 14 kts 137°
2026-04-20 19:37 50.86342 7.14705 273 ft 13 kts 137°
2026-04-20 19:38 50.86274 7.14803 276 ft 13 kts 137°
2026-04-20 19:38 50.86194 7.14919 276 ft 21 kts 137°
2026-04-20 19:38 50.86084 7.15079 279 ft 18 kts 134°
2026-04-20 19:38 50.86053 7.15255 281 ft 18 kts 60°
2026-04-20 19:39 50.86148 7.15349 280 ft 17 kts 357°
2026-04-20 19:39 50.86264 7.15319 280 ft 18 kts 347°
2026-04-20 19:39 50.86412 7.15240 277 ft 33 kts 333°
2026-04-20 19:39 50.86790 7.14730 271 ft 109 kts 317°
2026-04-20 19:40 50.87508 7.13707 373 ft 159 kts 322°
2026-04-20 19:40 50.88359 7.12520 1152 ft 167 kts 318°
2026-04-20 19:40 50.89236 7.11419 2187 ft 160 kts 342°
2026-04-20 19:40 50.90387 7.11427 2620 ft 184 kts 21°
2026-04-20 19:41 50.91619 7.12315 3039 ft 201 kts 24°
2026-04-20 19:41 50.92893 7.13348 3570 ft 209 kts 32°
2026-04-20 19:41 50.93912 7.15078 4024 ft 226 kts 58°
2026-04-20 19:41 50.94646 7.17349 4498 ft 236 kts 62°
2026-04-20 19:42 50.95370 7.19736 5037 ft 246 kts 62°
2026-04-20 19:42 50.96146 7.22251 5435 ft 260 kts 62°
2026-04-20 19:42 50.96952 7.24824 6242 ft 264 kts 62°
2026-04-20 19:42 50.97768 7.27442 7148 ft 265 kts 65°
2026-04-20 19:43 50.98105 7.29325 7688 ft 269 kts 83°
2026-04-20 19:43 50.97586 7.33170 8849 ft 275 kts 119°
2026-04-20 19:43 50.96300 7.35435 9727 ft 279 kts 136°
2026-04-20 19:43 50.94813 7.37454 10489 ft 284 kts 137°
2026-04-20 19:44 50.93237 7.39541 10739 ft 307 kts 138°
2026-04-20 19:44 50.91533 7.41799 10937 ft 331 kts 138°
2026-04-20 19:44 50.89707 7.44229 11155 ft 351 kts 138°
2026-04-20 19:44 50.87834 7.46734 11693 ft 360 kts 138°
2026-04-20 19:45 50.85917 7.49302 12435 ft 363 kts 138°
2026-04-20 19:45 50.83982 7.51895 13030 ft 364 kts 138°
2026-04-20 19:45 50.82040 7.54493 13154 ft 365 kts 138°
2026-04-20 19:45 50.80091 7.57096 13175 ft 367 kts 139°
2026-04-20 19:46 50.78012 7.59498 13311 ft 375 kts 148°
2026-04-20 19:46 50.75645 7.61304 14122 ft 376 kts 155°
2026-04-20 19:46 50.73232 7.62908 14766 ft 379 kts 156°
2026-04-20 19:46 50.70831 7.64631 15107 ft 381 kts 152°
2026-04-20 19:47 50.68491 7.66635 15168 ft 387 kts 149°
2026-04-20 19:47 50.66115 7.68789 15170 ft 399 kts 149°
2026-04-20 19:47 50.63691 7.70999 15171 ft 403 kts 149°
2026-04-20 19:47 50.61264 7.73195 15163 ft 402 kts 149°
2026-04-20 19:48 50.58859 7.75348 15150 ft 401 kts 149°
2026-04-20 19:48 50.56422 7.77509 15154 ft 401 kts 149°
2026-04-20 19:48 50.53976 7.79665 15154 ft 401 kts 150°
2026-04-20 19:48 50.51560 7.81787 15165 ft 402 kts 150°
2026-04-20 19:49 50.49130 7.83916 15136 ft 396 kts 150°
2026-04-20 19:49 50.46770 7.85979 15030 ft 381 kts 150°
2026-04-20 19:49 50.44487 7.87974 14896 ft 368 kts 150°
2026-04-20 19:49 50.42266 7.89913 14505 ft 363 kts 150°
2026-04-20 19:50 50.40062 7.91838 13974 ft 363 kts 150°
2026-04-20 19:50 50.37857 7.93760 13423 ft 361 kts 150°
2026-04-20 19:50 50.35665 7.95669 12926 ft 359 kts 150°
2026-04-20 19:50 50.33521 7.97537 12450 ft 356 kts 150°
2026-04-20 19:51 50.31283 7.99161 11941 ft 355 kts 163°
2026-04-20 19:51 50.28835 7.99637 11468 ft 354 kts 179°
2026-04-20 19:51 50.27204 7.99574 11198 ft 352 kts 182°
2026-04-20 19:51 50.26377 7.99514 11051 ft 351 kts 182°
2026-04-20 19:52 50.24757 7.99374 10745 ft 350 kts 183°